Oxford, MS

5:13 PM CDT on July 26, 2017 (GMT -0500)
University-Oxford

Weather History for KUOX - March, 2012

Change the Weather History Date:

Thursday, March 1, 2012

  Actual Average Record
Temperature  
Mean Temperature 58 °F -  
Max Temperature 75 °F 58 °F 80 °F (1932)
Min Temperature 41 °F 35 °F 13 °F (1968)
Degree Days  
Heating Degree Days 7    
Growing Degree Days 8 (Base 50)    
Moisture  
Dew Point 40 °F    
Average Humidity 59    
Maximum Humidity 100    
Minimum Humidity 23    
Precipitation  
Precipitation 0.00 in - - ()
Sea Level Pressure  
Sea Level Pressure 29.93 in    
Wind  
Wind Speed 2 mph (South)    
Max Wind Speed 10 mph    
Max Gust Speed 18 mph    
Visibility 9 miles    
Events Fog    
Averages and records for this station are not official NWS values.
T = Trace of Precipitation, MM = Missing Value Source: NWS Daily Summary

Daily Weather History Graph

Daily Weather History Graph

Search for Another Location

Airport or City:

Trip Planner

Search our weather history database for the weather conditions in past years. The results will help you decide how hot, cold, wet, or windy it might be!

Date:

Astronomy

Mar. 01, 2012 Rise Set
Actual Time 6:26 AM CST 5:54 PM CST
Civil Twilight 6:01 AM CST 6:19 PM CST
Nautical Twilight 5:32 AM CST 6:49 PM CST
Astronomical Twilight 5:03 AM CST 7:18 PM CST
Moon 11:26 AM CST (3/1) 1:13 AM CST (3/1)
Length of Visible Light 12h 18m
Length of Day
11h 28m
First Quarter, 57% of the Moon is Illuminated
Mar 1
First Quarter
Mar 8
Full
Mar 14
Last Quarter
Mar 22
New
Mar 30
First Quarter

Hourly Weather History & Observations

Time (CST) Temp. Dew Point Humidity Pressure Visibility Wind Dir Wind Speed Gust Speed Precip Events Conditions
12:15 AM 59.0 °F 59.0 °F 100% 29.95 in 0.2 mi Calm Calm - N/A Fog Fog
12:35 AM 59.0 °F 59.0 °F 100% 29.95 in 0.5 mi North 4.6 mph - N/A Fog Fog
12:55 AM 55.4 °F 55.4 °F 100% 29.96 in 10.0 mi Calm Calm - N/A   Clear
1:15 AM 55.4 °F 50.0 °F 82% 29.96 in 10.0 mi Calm Calm - N/A   Clear
1:35 AM 53.6 °F 50.0 °F 88% 29.96 in 10.0 mi Calm Calm - N/A   Clear
1:55 AM 51.8 °F 50.0 °F 94% 29.96 in 10.0 mi Calm Calm - N/A   Clear
2:15 AM 50.0 °F 48.2 °F 94% 29.97 in 7.0 mi Calm Calm - N/A   Clear
2:35 AM 48.2 °F 48.2 °F 100% 29.96 in 5.0 mi Calm Calm - N/A   Clear
2:55 AM 48.2 °F 46.4 °F 93% 29.96 in 7.0 mi Calm Calm - N/A   Clear
3:15 AM 46.4 °F 46.4 °F 100% 29.97 in 6.0 mi Calm Calm - N/A   Clear
3:35 AM 46.4 °F 46.4 °F 100% 29.98 in 5.0 mi Calm Calm - N/A   Mist
4:15 AM 44.6 °F 44.6 °F 100% 29.98 in 6.0 mi Calm Calm - N/A   Clear
4:35 AM 44.6 °F 44.6 °F 100% 29.99 in 8.0 mi Calm Calm - N/A   Clear
4:55 AM 44.6 °F 42.8 °F 93% 29.99 in 7.0 mi Calm Calm - N/A   Clear
5:15 AM 42.8 °F 41.0 °F 93% 29.99 in 7.0 mi Calm Calm - N/A   Clear
5:35 AM 42.8 °F 41.0 °F 93% 29.99 in 10.0 mi Calm Calm - N/A   Clear
5:55 AM 41.0 °F 41.0 °F 100% 29.99 in 9.0 mi Calm Calm - N/A   Clear
6:15 AM 41.0 °F 41.0 °F 100% 29.99 in 10.0 mi Calm Calm - N/A   Clear
6:35 AM 41.0 °F 39.2 °F 93% 29.99 in 7.0 mi Calm Calm - N/A   Clear
6:55 AM 41.0 °F 39.2 °F 93% 29.99 in 10.0 mi Calm Calm - N/A   Clear
7:15 AM 41.0 °F 41.0 °F 100% 30.00 in 10.0 mi Calm Calm - N/A   Clear
7:35 AM 44.6 °F 44.6 °F 100% 30.00 in 10.0 mi Calm Calm - N/A   Clear
8:15 AM 53.6 °F 39.2 °F 58% 30.00 in 10.0 mi Calm Calm - N/A   Clear
8:35 AM 57.2 °F 33.8 °F 41% 30.00 in 10.0 mi Calm Calm - N/A   Clear
8:55 AM 59.0 °F 32.0 °F 36% 30.00 in 10.0 mi SE 3.5 mph - N/A   Clear
9:15 AM 59.0 °F 30.2 °F 34% 30.00 in 10.0 mi ESE 4.6 mph - N/A   Clear
9:35 AM 62.6 °F 32.0 °F 32% 29.99 in 10.0 mi ESE 4.6 mph - N/A   Clear
9:55 AM 62.6 °F 32.0 °F 32% 29.99 in 10.0 mi East 4.6 mph - N/A   Clear
10:15 AM 64.4 °F 30.2 °F 28% 29.99 in 10.0 mi SSE 4.6 mph - N/A   Clear
10:35 AM 64.4 °F 26.6 °F 24% 29.98 in 10.0 mi ESE 5.8 mph - N/A   Clear
10:55 AM 66.2 °F 32.0 °F 28% 29.98 in 10.0 mi SE 4.6 mph - N/A   Clear
11:15 AM 66.2 °F 28.4 °F 24% 29.96 in 10.0 mi SE 3.5 mph - N/A   Clear
11:35 AM 68.0 °F 30.2 °F 24% 29.95 in 10.0 mi South 4.6 mph - N/A   Clear
11:55 AM 68.0 °F 32.0 °F 26% 29.93 in 10.0 mi SSE 4.6 mph - N/A   Clear
12:15 PM 68.0 °F 32.0 °F 26% 29.92 in 10.0 mi SSE 5.8 mph - N/A   Clear
12:55 PM 71.6 °F 32.0 °F 23% 29.90 in 10.0 mi South 4.6 mph - N/A   Clear
1:15 PM 71.6 °F 32.0 °F 23% 29.88 in 10.0 mi South 4.6 mph - N/A   Clear
1:35 PM 71.6 °F 32.0 °F 23% 29.88 in 10.0 mi South 4.6 mph - N/A   Clear
1:55 PM 73.4 °F 33.8 °F 23% 29.87 in 10.0 mi SSW 5.8 mph - N/A   Clear
2:15 PM 73.4 °F 35.6 °F 25% 29.86 in 10.0 mi SSW 10.4 mph 16.1 mph N/A   Clear
2:35 PM 73.4 °F 35.6 °F 25% 29.85 in 10.0 mi WSW 5.8 mph 16.1 mph N/A   Clear
2:55 PM 73.4 °F 35.6 °F 25% 29.85 in 10.0 mi SW 5.8 mph 18.4 mph N/A   Clear
3:15 PM 75.2 °F 37.4 °F 25% 29.85 in 10.0 mi South 5.8 mph - N/A   Clear
3:35 PM 75.2 °F 37.4 °F 25% 29.84 in 10.0 mi South 4.6 mph - N/A   Clear
3:55 PM 75.2 °F 41.0 °F 29% 29.84 in 10.0 mi SSW 9.2 mph 16.1 mph N/A   Clear
4:15 PM 73.4 °F 41.0 °F 31% 29.83 in 10.0 mi SSW 6.9 mph - N/A   Clear
4:35 PM 73.4 °F 42.8 °F 33% 29.82 in 10.0 mi SSW 8.1 mph - N/A   Clear
4:55 PM 73.4 °F 44.6 °F 36% 29.82 in 10.0 mi SSW 5.8 mph - N/A   Clear
5:15 PM 71.6 °F 44.6 °F 38% 29.81 in 10.0 mi SSW 6.9 mph - N/A   Clear
5:35 PM 71.6 °F 46.4 °F 41% 29.80 in 10.0 mi Calm Calm - N/A   Clear
5:55 PM 68.0 °F 46.4 °F 46% 29.80 in 10.0 mi Calm Calm - N/A   Clear
6:15 PM 68.0 °F 46.4 °F 46% 29.79 in 10.0 mi Calm Calm - N/A   Clear
6:35 PM 66.2 °F 46.4 °F 49% 29.79 in 10.0 mi South 3.5 mph - N/A   Clear
6:55 PM 66.2 °F 48.2 °F 52% 29.79 in 10.0 mi Calm Calm - N/A   Clear
7:15 PM 66.2 °F 48.2 °F 52% 29.78 in 10.0 mi SSE 3.5 mph - N/A   Clear
7:35 PM 66.2 °F 48.2 °F 52% 29.78 in 10.0 mi SSE 3.5 mph - N/A   Clear
7:55 PM 66.2 °F 48.2 °F 52% 29.77 in 10.0 mi Calm Calm - N/A   Clear
8:15 PM 66.2 °F 50.0 °F 56% 29.77 in 10.0 mi SSE 4.6 mph - N/A   Clear
8:35 PM 66.2 °F 50.0 °F 56% 29.77 in 10.0 mi SSE 4.6 mph - N/A   Clear
8:55 PM 66.2 °F 51.8 °F 60% 29.76 in 10.0 mi SSE 3.5 mph - N/A   Clear
9:15 PM 66.2 °F 53.6 °F 64% 29.76 in 10.0 mi SSE 3.5 mph - N/A   Clear
9:35 PM 64.4 °F 53.6 °F 68% 29.76 in 10.0 mi SSE 3.5 mph - N/A   Partly Cloudy
9:55 PM 66.2 °F 55.4 °F 68% 29.76 in 10.0 mi SSE 4.6 mph - N/A   Mostly Cloudy
10:15 PM 66.2 °F 55.4 °F 68% 29.76 in 10.0 mi SSE 3.5 mph - N/A   Mostly Cloudy
10:35 PM 64.4 °F 55.4 °F 73% 29.75 in 10.0 mi SSE 3.5 mph - N/A   Partly Cloudy
10:55 PM 66.2 °F 57.2 °F 73% 29.75 in 10.0 mi South 3.5 mph - N/A   Clear
11:15 PM 66.2 °F 57.2 °F 73% 29.75 in 10.0 mi South 3.5 mph - N/A   Clear
11:35 PM 64.4 °F 57.2 °F 77% 29.74 in 10.0 mi South 4.6 mph - N/A   Clear
11:55 PM 66.2 °F 59.0 °F 78% 29.74 in 10.0 mi South 4.6 mph - N/A   Clear